Regional Weather Roundup
Issued by NWS Kansas City/Pleasant Hill, MO

Home | Current Version | Previous Version | Graphics & Text | Print | Product List | Glossary Off
Versions: 1 2 3 4 5 6 7 8 9 10 11 12 13 14 15 16 17 18 19 20 21 22 23 24 25 26 27 28 29 30 31 32 33 34 35 36 37 38 39 40 41 42 43 44 45 46 47 48 49 50

000
ASUS43 KEAX 191410
RWREAX

WEATHER ROUNDUP FOR EASTERN KANSAS AND NORTHWEST MISSOURI
NATIONAL WEATHER SERVICE KANSAS CITY/PLEASANT HILL MO
800 AM CST FRI JAN 19 2018

KSZ040-057-103>105-MOZ028-029-037-043-191500-
...KANSAS CITY METROPOLITAN AREA...

CITY           SKY/WX    TMP DP  RH WIND       PRES   REMARKS
K.C. INTL      CLOUDY    31  17  56 S15       29.93S WCI  20
K.C. DOWNTOWN  PTCLDY    33  17  51 S12       29.96R WCI  24
LEES SUMMIT    CLOUDY    31  18  58 S13       29.97R WCI  21
OLATHE - IXD   CLOUDY    30  17  58 S10       29.97R WCI  21
OLATHE - OJC   CLOUDY    28  17  63 S10       29.96S WCI  19
LAWRENCE       CLOUDY    27  18  69 SE6       29.96R WCI  20

$$

MOZ001>008-011>017-020>025-030>033-038>040-044>046-053-054-191500-
...NORTHERN AND CENTRAL MISSOURI...

CITY           SKY/WX    TMP DP  RH WIND       PRES   REMARKS
ST. JOSEPH     CLOUDY    31  22  69 S12       29.91F WCI  22
MOSBY          CLOUDY    32  18  55 S9        29.96S WCI  24
WARRENSBURG    CLOUDY    30  18  59 S8        30.00S WCI  23
WHITEMAN AFB   PTCLDY    31  16  53 SW17      29.95F WCI  20
CLINTON        CLOUDY    30  16  55 S10       30.03F WCI  21
SEDALIA        CLOUDY    32  18  56 SW20      30.00F WCI  20
WARSAW         NOT AVBL
CHILLICOTHE      N/A     30  18  60 S8        29.95R WCI  22
KIRKSVILLE     CLOUDY    31  20  63 SW14G22   29.93S WCI  21

$$

MOZ041-047>049-056>058-063>065-088>090-097-191500-
...EASTERN AND SOUTHERN MISSOURI...

CITY           SKY/WX    TMP DP  RH WIND       PRES   REMARKS
ST. LOUIS INTL CLOUDY    31  14  49 S6        30.07F WCI  25
SPIRIT OF STL  CLOUDY    35  13  40 SW10      30.07S WCI  27
COLUMBIA       CLOUDY    31  15  52 S12       30.02F WCI  22
JEFFERSON CITY MIX PCPN  31  14  49 S5        30.06F WCI  26
ROLLA          CLOUDY    30  13  49 S16       30.07S WCI  19
OSAGE BEACH    CLOUDY    33  14  45 S9        30.07S WCI  25
SPRINGFIELD    CLOUDY    28  13  53 S12       30.07S WCI  18
BRANSON        PTCLDY    32  10  40 S5        30.12S WCI  27
JOPLIN         CLOUDY    32  19  58 S16       30.06F WCI  21
WEST PLAINS    CLOUDY    28  12  51 S5        30.14S WCI  23

$$

IAZ060-094-KSZ022-034>040-054-083-096-NEZ052-066-093-191500-
...KANSAS...SOUTHEAST NEBRASKA AND IOWA...

CITY           SKY/WX    TMP DP  RH WIND       PRES   REMARKS
TOPEKA         CLOUDY    31  20  63 S5        29.94R WCI  26
MANHATTAN      CLOUDY    32  21  64 SW8       29.89R WCI  25
EMPORIA        CLOUDY    28  17  63 S12       29.93S WCI  18
CHANUTE        CLOUDY    29  17  61 S15       30.01S WCI  18
WICHITA        CLOUDY    28  17  63 S15       29.93F WCI  16
OMAHA          CLOUDY    27  22  81 SE12      29.77S WCI  17
LINCOLN        CLOUDY    33  22  63 S9        29.78F WCI  25
FALLS CITY     CLOUDY    32  22  66 S7        29.85S WCI  26
LAMONI         CLOUDY    31  20  63 S15       29.84F WCI  20
DES MOINES     CLOUDY    33  23  66 MISG      29.79F

$$




USA.gov is the U.S. government's official web portal to all federal, state and local government web resources and services.